Year,Month,Day,Hour,Minute,Value (Times are PST for temperature in C)
2011,07,19,00,00,15.70
2011,07,19,00,01,15.60
2011,07,19,00,02,15.60
2011,07,19,00,03,15.60
2011,07,19,00,04,15.60
2011,07,19,00,05,15.60
2011,07,19,00,06,15.50
2011,07,19,00,07,15.50
2011,07,19,00,08,15.50
2011,07,19,00,09,15.40
2011,07,19,00,10,15.40
2011,07,19,00,11,15.40
2011,07,19,00,12,15.30
2011,07,19,00,13,15.30
2011,07,19,00,14,15.30
2011,07,19,00,15,15.30
2011,07,19,00,16,15.30
2011,07,19,00,17,15.20
2011,07,19,00,18,15.20
2011,07,19,00,19,15.20
2011,07,19,00,20,15.20
2011,07,19,00,21,15.20
2011,07,19,00,22,15.20
2011,07,19,00,23,15.20
2011,07,19,00,24,15.10
2011,07,19,00,25,15.10
2011,07,19,00,26,15.10
2011,07,19,00,27,15.10
2011,07,19,00,28,15.10
2011,07,19,00,29,15.20
2011,07,19,00,30,15.20
2011,07,19,00,32,15.20
2011,07,19,00,33,15.20
2011,07,19,00,34,15.20
2011,07,19,00,35,15.20
2011,07,19,00,36,15.20
2011,07,19,00,37,15.30
2011,07,19,00,38,15.20
2011,07,19,00,39,15.20
2011,07,19,00,40,15.20
2011,07,19,00,41,15.20
2011,07,19,00,42,15.20
2011,07,19,00,43,15.20
2011,07,19,00,44,15.20
2011,07,19,00,45,15.20
2011,07,19,00,46,15.20
2011,07,19,00,47,15.20
2011,07,19,00,48,15.20
2011,07,19,00,49,15.20
2011,07,19,00,50,15.20
2011,07,19,00,51,15.10
2011,07,19,00,52,15.10
2011,07,19,00,53,15.10
2011,07,19,00,54,15.10
2011,07,19,00,55,15.10
2011,07,19,00,56,15.10
2011,07,19,00,57,15.00
2011,07,19,00,58,15.00
2011,07,19,00,59,15.00
2011,07,19,01,00,15.00
2011,07,19,01,01,15.00
2011,07,19,01,02,15.00
2011,07,19,01,03,15.00
2011,07,19,01,04,15.00
2011,07,19,01,05,15.00
2011,07,19,01,06,15.00
2011,07,19,01,07,15.00
2011,07,19,01,08,15.00
2011,07,19,01,09,15.00
2011,07,19,01,10,15.00
2011,07,19,01,11,15.00
2011,07,19,01,12,15.00
2011,07,19,01,13,15.00
2011,07,19,01,14,15.00
2011,07,19,01,15,15.00
2011,07,19,01,16,15.00
2011,07,19,01,17,15.00
2011,07,19,01,18,15.00
2011,07,19,01,19,15.00
2011,07,19,01,20,15.00
2011,07,19,01,21,14.90
2011,07,19,01,22,14.90
2011,07,19,01,23,14.90
2011,07,19,01,24,14.90
2011,07,19,01,25,14.90
2011,07,19,01,26,14.90
2011,07,19,01,27,14.90
2011,07,19,01,28,14.80
2011,07,19,01,29,14.80
2011,07,19,01,30,14.80
2011,07,19,01,31,14.80
2011,07,19,01,32,14.80
2011,07,19,01,33,14.80
2011,07,19,01,34,14.80
2011,07,19,01,35,14.80
2011,07,19,01,36,14.80
2011,07,19,01,37,14.80
2011,07,19,01,38,14.80
2011,07,19,01,39,14.80
2011,07,19,01,40,14.80
2011,07,19,01,41,14.70
2011,07,19,01,42,14.70
2011,07,19,01,43,14.70
2011,07,19,01,44,14.70
2011,07,19,01,45,14.70
2011,07,19,01,46,14.70
2011,07,19,01,47,14.70
2011,07,19,01,48,14.70
2011,07,19,01,49,14.70
2011,07,19,01,50,14.70
2011,07,19,01,51,14.60
2011,07,19,01,52,14.60
2011,07,19,01,53,14.60
2011,07,19,01,54,14.60
2011,07,19,01,55,14.60
2011,07,19,01,56,14.60
2011,07,19,01,57,14.60
2011,07,19,01,58,14.60
2011,07,19,01,59,14.60
2011,07,19,02,00,14.60
2011,07,19,02,01,14.60
2011,07,19,02,02,14.60
2011,07,19,02,03,14.50
2011,07,19,02,04,14.50
2011,07,19,02,05,14.50
2011,07,19,02,06,14.40
2011,07,19,02,07,14.40
2011,07,19,02,08,14.40
2011,07,19,02,09,14.40
2011,07,19,02,10,14.40
2011,07,19,02,11,14.40
2011,07,19,02,12,14.40
2011,07,19,02,13,14.40
2011,07,19,02,14,14.40
2011,07,19,02,15,14.40
2011,07,19,02,16,14.40
2011,07,19,02,17,14.40
2011,07,19,02,18,14.40
2011,07,19,02,19,14.40
2011,07,19,02,20,14.40
2011,07,19,02,21,14.40
2011,07,19,02,22,14.30
2011,07,19,02,23,14.30
2011,07,19,02,24,14.30
2011,07,19,02,25,14.30
2011,07,19,02,26,14.30
2011,07,19,02,27,14.30
2011,07,19,02,28,14.30
2011,07,19,02,29,14.30
2011,07,19,02,30,14.30
2011,07,19,02,31,14.30
2011,07,19,02,32,14.30
2011,07,19,02,33,14.30
2011,07,19,02,34,14.30
2011,07,19,02,35,14.30
2011,07,19,02,36,14.30
2011,07,19,02,37,14.30
2011,07,19,02,38,14.30
2011,07,19,02,39,14.30
2011,07,19,02,40,14.30
2011,07,19,02,41,14.30
2011,07,19,02,42,14.30
2011,07,19,02,43,14.30
2011,07,19,02,44,14.30
2011,07,19,02,45,14.30
2011,07,19,02,46,14.30
2011,07,19,02,47,14.30
2011,07,19,02,48,14.30
2011,07,19,02,49,14.30
2011,07,19,02,50,14.30
2011,07,19,02,51,14.30
2011,07,19,02,52,14.30
2011,07,19,02,53,14.30
2011,07,19,02,54,14.30
2011,07,19,02,55,14.30
2011,07,19,02,56,14.30
2011,07,19,02,57,14.30
2011,07,19,02,58,14.30
2011,07,19,02,59,14.30
2011,07,19,03,00,14.30
2011,07,19,03,01,14.30
2011,07,19,03,02,14.30
2011,07,19,03,03,14.30
2011,07,19,03,04,14.30
2011,07,19,03,05,14.30
2011,07,19,03,06,14.30
2011,07,19,03,07,14.30
2011,07,19,03,08,14.30
2011,07,19,03,09,14.30
2011,07,19,03,10,14.30
2011,07,19,03,11,14.30
2011,07,19,03,12,14.30
2011,07,19,03,13,14.30
2011,07,19,03,14,14.30
2011,07,19,03,15,14.30
2011,07,19,03,16,14.30
2011,07,19,03,17,14.30
2011,07,19,03,18,14.30
2011,07,19,03,19,14.30
2011,07,19,03,20,14.30
2011,07,19,03,21,14.30
2011,07,19,03,22,14.30
2011,07,19,03,23,14.30
2011,07,19,03,24,14.30
2011,07,19,03,25,14.30
2011,07,19,03,26,14.30
2011,07,19,03,27,14.30
2011,07,19,03,28,14.30
2011,07,19,03,29,14.30
2011,07,19,03,30,14.30
2011,07,19,03,31,14.30
2011,07,19,03,32,14.30
2011,07,19,03,33,14.30
2011,07,19,03,34,14.30
2011,07,19,03,35,14.30
2011,07,19,03,36,14.30
2011,07,19,03,37,14.30
2011,07,19,03,38,14.30
2011,07,19,03,39,14.30
2011,07,19,03,40,14.30
2011,07,19,03,41,14.40
2011,07,19,03,42,14.40
2011,07,19,03,43,14.40
2011,07,19,03,44,14.40
2011,07,19,03,45,14.40
2011,07,19,03,46,14.40
2011,07,19,03,47,14.40
2011,07,19,03,48,14.40
2011,07,19,03,49,14.40
2011,07,19,03,50,14.40
2011,07,19,03,51,14.40
2011,07,19,03,52,14.40
2011,07,19,03,53,14.40
2011,07,19,03,54,14.40
2011,07,19,03,55,14.40
2011,07,19,03,56,14.40
2011,07,19,03,57,14.40
2011,07,19,03,58,14.40
2011,07,19,03,59,14.40
2011,07,19,04,00,14.40
2011,07,19,04,01,14.40
2011,07,19,04,02,14.40
2011,07,19,04,03,14.40
2011,07,19,04,04,14.40
2011,07,19,04,05,14.40
2011,07,19,04,06,14.40
2011,07,19,04,07,14.40
2011,07,19,04,08,14.40
2011,07,19,04,09,14.40
2011,07,19,04,10,14.40
2011,07,19,04,11,14.40
2011,07,19,04,12,14.40
2011,07,19,04,13,14.40
2011,07,19,04,14,14.40
2011,07,19,04,15,14.40
2011,07,19,04,16,14.30
2011,07,19,04,17,14.30
2011,07,19,04,18,14.30
2011,07,19,04,19,14.30
2011,07,19,04,20,14.30
2011,07,19,04,21,14.30
2011,07,19,04,22,14.30
2011,07,19,04,23,14.30
2011,07,19,04,24,14.30
2011,07,19,04,25,14.30
2011,07,19,04,26,14.30
2011,07,19,04,27,14.30
2011,07,19,04,28,14.30
2011,07,19,04,29,14.30
2011,07,19,04,30,14.30
2011,07,19,04,31,14.30
2011,07,19,04,32,14.30
2011,07,19,04,33,14.30
2011,07,19,04,34,14.30
2011,07,19,04,35,14.30
2011,07,19,04,36,14.30
2011,07,19,04,37,14.30
2011,07,19,04,38,14.30
2011,07,19,04,39,14.30
2011,07,19,04,40,14.30
2011,07,19,04,41,14.30
2011,07,19,04,42,14.30
2011,07,19,04,43,14.30
2011,07,19,04,44,14.30
2011,07,19,04,45,14.30
2011,07,19,04,46,14.30
2011,07,19,04,47,14.30
2011,07,19,04,48,14.30
2011,07,19,04,49,14.40
2011,07,19,04,50,14.40
2011,07,19,04,51,14.40
2011,07,19,04,52,14.30
2011,07,19,04,53,14.40
2011,07,19,04,54,14.30
2011,07,19,04,55,14.30
2011,07,19,04,56,14.30
2011,07,19,04,57,14.30
2011,07,19,04,58,14.30
2011,07,19,04,59,14.30
2011,07,19,05,00,14.30
2011,07,19,05,01,14.30
2011,07,19,05,02,14.20
2011,07,19,05,03,14.20
2011,07,19,05,04,14.20
2011,07,19,05,05,14.20
2011,07,19,05,06,14.20
2011,07,19,05,07,14.20
2011,07,19,05,08,14.20
2011,07,19,05,09,14.20
2011,07,19,05,10,14.10
2011,07,19,05,11,14.10
2011,07,19,05,12,14.10
2011,07,19,05,13,14.10
2011,07,19,05,14,14.10
2011,07,19,05,15,14.10
2011,07,19,05,16,14.10
2011,07,19,05,17,14.10
2011,07,19,05,18,14.10
2011,07,19,05,19,14.00
2011,07,19,05,20,14.00
2011,07,19,05,21,14.00
2011,07,19,05,22,14.00
2011,07,19,05,23,14.00
2011,07,19,05,24,14.00
2011,07,19,05,25,14.00
2011,07,19,05,26,14.00
2011,07,19,05,27,14.00
2011,07,19,05,28,14.00
2011,07,19,05,29,13.90
2011,07,19,05,30,13.90
2011,07,19,05,31,13.90
2011,07,19,05,32,13.90
2011,07,19,05,33,14.00
2011,07,19,05,34,13.90
2011,07,19,05,35,13.90
2011,07,19,05,36,13.90
2011,07,19,05,37,13.90
2011,07,19,05,38,13.90
2011,07,19,05,39,14.00
2011,07,19,05,40,14.00
2011,07,19,05,41,14.00
2011,07,19,05,42,14.00
2011,07,19,05,43,14.00
2011,07,19,05,44,14.00
2011,07,19,05,45,14.10
2011,07,19,05,46,14.10
2011,07,19,05,47,14.10
2011,07,19,05,48,14.10
2011,07,19,05,49,14.10
2011,07,19,05,50,14.10
2011,07,19,05,51,14.10
2011,07,19,05,52,14.10
2011,07,19,05,53,14.10
2011,07,19,05,54,14.10
2011,07,19,05,55,14.10
2011,07,19,05,56,14.10
2011,07,19,05,57,14.10
2011,07,19,05,58,14.10
2011,07,19,05,59,14.10
2011,07,19,06,00,14.10
2011,07,19,06,01,14.10
2011,07,19,06,02,14.10
2011,07,19,06,03,14.10
2011,07,19,06,04,14.10
2011,07,19,06,05,14.10
2011,07,19,06,06,14.10
2011,07,19,06,07,14.10
2011,07,19,06,08,14.10
2011,07,19,06,09,14.10
2011,07,19,06,10,14.10
2011,07,19,06,11,14.10
2011,07,19,06,12,14.10
2011,07,19,06,13,14.10
2011,07,19,06,14,14.10
2011,07,19,06,15,14.10
2011,07,19,06,16,14.10
2011,07,19,06,17,14.10
2011,07,19,06,18,14.10
2011,07,19,06,19,14.10
2011,07,19,06,20,14.10
2011,07,19,06,21,14.10
2011,07,19,06,22,14.10
2011,07,19,06,23,14.10
2011,07,19,06,24,14.10
2011,07,19,06,25,14.10
2011,07,19,06,26,14.10
2011,07,19,06,27,14.10
2011,07,19,06,28,14.10
2011,07,19,06,29,14.10
2011,07,19,06,30,14.20
2011,07,19,06,31,14.20
2011,07,19,06,32,14.20
2011,07,19,06,33,14.20
2011,07,19,06,34,14.20
2011,07,19,06,35,14.20
2011,07,19,06,36,14.20
2011,07,19,06,37,14.20
2011,07,19,06,38,14.20
2011,07,19,06,39,14.20
2011,07,19,06,40,14.20
2011,07,19,06,41,14.20
2011,07,19,06,42,14.20
2011,07,19,06,43,14.20
2011,07,19,06,44,14.20
2011,07,19,06,45,14.20
2011,07,19,06,46,14.20
2011,07,19,06,47,14.20
2011,07,19,06,48,14.20
2011,07,19,06,49,14.20
2011,07,19,06,50,14.20
2011,07,19,06,51,14.20
2011,07,19,06,52,14.20
2011,07,19,06,53,14.20
2011,07,19,06,54,14.20
2011,07,19,06,55,14.20
2011,07,19,06,56,14.20
2011,07,19,06,57,14.30
2011,07,19,06,58,14.20
2011,07,19,06,59,14.20
2011,07,19,07,00,14.30
2011,07,19,07,01,14.30
2011,07,19,07,02,14.30
2011,07,19,07,03,14.30
2011,07,19,07,04,14.30
2011,07,19,07,05,14.30
2011,07,19,07,06,14.30
2011,07,19,07,07,14.30
2011,07,19,07,08,14.40
2011,07,19,07,09,14.40
2011,07,19,07,10,14.40
2011,07,19,07,11,14.40
2011,07,19,07,12,14.40
2011,07,19,07,13,14.50
2011,07,19,07,14,14.50
2011,07,19,07,15,14.50
2011,07,19,07,16,14.60
2011,07,19,07,17,14.60
2011,07,19,07,18,14.60
2011,07,19,07,19,14.60
2011,07,19,07,20,14.60
2011,07,19,07,21,14.60
2011,07,19,07,22,14.60
2011,07,19,07,23,14.60
2011,07,19,07,24,14.60
2011,07,19,07,25,14.60
2011,07,19,07,26,14.60
2011,07,19,07,27,14.60
2011,07,19,07,28,14.70
2011,07,19,07,29,14.70
2011,07,19,07,30,14.70
2011,07,19,07,31,14.70
2011,07,19,07,32,14.70
2011,07,19,07,33,14.70
2011,07,19,07,34,14.70
2011,07,19,07,35,14.70
2011,07,19,07,36,14.70
2011,07,19,07,37,14.70
2011,07,19,07,38,14.70
2011,07,19,07,39,14.70
2011,07,19,07,40,14.70
2011,07,19,07,41,14.70
2011,07,19,07,42,14.80
2011,07,19,07,43,14.80
2011,07,19,07,44,14.80
2011,07,19,07,45,14.80
2011,07,19,07,46,14.80
2011,07,19,07,47,14.80
2011,07,19,07,48,14.80
2011,07,19,07,49,14.80
2011,07,19,07,50,14.80
2011,07,19,07,51,14.80
2011,07,19,07,52,14.80
2011,07,19,07,53,14.90
2011,07,19,07,54,14.90
2011,07,19,07,55,14.90
2011,07,19,07,56,14.90
2011,07,19,07,57,14.90
2011,07,19,07,58,14.90
2011,07,19,07,59,15.00
2011,07,19,08,00,15.00
2011,07,19,08,01,14.90
2011,07,19,08,02,15.00
2011,07,19,08,03,15.00
2011,07,19,08,04,15.00
2011,07,19,08,05,15.00
2011,07,19,08,06,15.00
2011,07,19,08,07,15.00
2011,07,19,08,08,15.00
2011,07,19,08,09,15.00
2011,07,19,08,10,15.00
2011,07,19,08,11,15.00
2011,07,19,08,12,15.00
2011,07,19,08,13,15.00
2011,07,19,08,14,15.00
2011,07,19,08,15,15.00
2011,07,19,08,16,15.00
2011,07,19,08,17,15.00
2011,07,19,08,18,15.00
2011,07,19,08,19,15.00
2011,07,19,08,20,15.00
2011,07,19,08,21,15.00
2011,07,19,08,22,15.00
2011,07,19,08,23,15.00
2011,07,19,08,24,15.00
2011,07,19,08,25,15.00
2011,07,19,08,26,15.00
2011,07,19,08,27,15.00
2011,07,19,08,28,15.10
2011,07,19,08,29,15.10
2011,07,19,08,30,15.10
2011,07,19,08,31,15.10
2011,07,19,08,32,15.10
2011,07,19,08,33,15.10
2011,07,19,08,34,15.10
2011,07,19,08,35,15.10
2011,07,19,08,36,15.20
2011,07,19,08,37,15.20
2011,07,19,08,39,15.20
2011,07,19,08,40,15.20
2011,07,19,08,41,15.30
2011,07,19,08,42,15.30
2011,07,19,08,43,15.30
2011,07,19,08,44,15.30
2011,07,19,08,45,15.30
2011,07,19,08,46,15.30
2011,07,19,08,47,15.30
2011,07,19,08,48,15.30
2011,07,19,08,49,15.30
2011,07,19,08,50,15.40
2011,07,19,08,51,15.40
2011,07,19,08,52,15.40
2011,07,19,08,53,15.40
2011,07,19,08,54,15.40
2011,07,19,08,55,15.40
2011,07,19,08,56,15.40
2011,07,19,08,57,15.40
2011,07,19,08,58,15.40
2011,07,19,08,59,15.40
2011,07,19,09,00,15.40
2011,07,19,09,01,15.40
2011,07,19,09,02,15.40
2011,07,19,09,03,15.40
2011,07,19,09,04,15.40
2011,07,19,09,05,15.40
2011,07,19,09,06,15.40
2011,07,19,09,07,15.40
2011,07,19,09,08,15.50
2011,07,19,09,09,15.50
2011,07,19,09,10,15.50
2011,07,19,09,11,15.50
2011,07,19,09,12,15.60
2011,07,19,09,13,15.60
2011,07,19,09,14,15.60
2011,07,19,09,15,15.60
2011,07,19,09,16,15.60
2011,07,19,09,17,15.70
2011,07,19,09,18,15.70
2011,07,19,09,19,15.70
2011,07,19,09,20,15.70
2011,07,19,09,21,15.70
2011,07,19,09,22,15.70
2011,07,19,09,23,15.70
2011,07,19,09,24,15.70
2011,07,19,09,25,15.70
2011,07,19,09,26,15.80
2011,07,19,09,27,15.80
2011,07,19,09,28,15.80
2011,07,19,09,29,15.80
2011,07,19,09,30,15.80
2011,07,19,09,31,15.90
2011,07,19,09,32,15.90
2011,07,19,09,33,15.90
2011,07,19,09,34,15.90
2011,07,19,09,35,16.00
2011,07,19,09,36,16.00
2011,07,19,09,37,16.10
2011,07,19,09,38,16.10
2011,07,19,09,39,16.10
2011,07,19,09,40,16.20
2011,07,19,09,41,16.20
2011,07,19,09,42,16.20
2011,07,19,09,43,16.20
2011,07,19,09,44,16.30
2011,07,19,09,45,16.30
2011,07,19,09,46,16.30
2011,07,19,09,47,16.40
2011,07,19,09,48,16.40
2011,07,19,09,49,16.50
2011,07,19,09,50,16.60
2011,07,19,09,51,16.60
2011,07,19,09,52,16.60
2011,07,19,09,53,16.60
2011,07,19,09,54,16.70
2011,07,19,09,55,16.70
2011,07,19,09,56,16.70
2011,07,19,09,57,16.70
2011,07,19,09,58,16.70
2011,07,19,09,59,16.70
2011,07,19,10,00,16.70
2011,07,19,10,01,16.80
2011,07,19,10,02,16.80
2011,07,19,10,03,16.80
2011,07,19,10,04,16.80
2011,07,19,10,05,16.80
2011,07,19,10,06,16.80
2011,07,19,10,07,16.80
2011,07,19,10,08,16.80
2011,07,19,10,09,16.70
2011,07,19,10,10,16.70
2011,07,19,10,11,16.70
2011,07,19,10,12,16.70
2011,07,19,10,13,16.70
2011,07,19,10,14,16.70
2011,07,19,10,15,16.70
2011,07,19,10,16,16.60
2011,07,19,10,17,16.70
2011,07,19,10,18,16.70
2011,07,19,10,19,16.70
2011,07,19,10,20,16.80
2011,07,19,10,21,16.80
2011,07,19,10,22,16.80
2011,07,19,10,23,16.80
2011,07,19,10,24,16.80
2011,07,19,10,25,16.80
2011,07,19,10,26,16.90
2011,07,19,10,27,16.90
2011,07,19,10,28,16.90
2011,07,19,10,29,16.90
2011,07,19,10,30,17.00
2011,07,19,10,31,17.10
2011,07,19,10,32,17.10
2011,07,19,10,33,17.20
2011,07,19,10,34,17.20
2011,07,19,10,35,17.30
2011,07,19,10,36,17.30
2011,07,19,10,37,17.30
2011,07,19,10,38,17.40
2011,07,19,10,39,17.40
2011,07,19,10,40,17.50
2011,07,19,10,41,17.60
2011,07,19,10,42,17.70
2011,07,19,10,43,17.80
2011,07,19,10,44,17.80
2011,07,19,10,45,17.80
2011,07,19,10,46,17.90
2011,07,19,10,47,17.90
2011,07,19,10,48,18.00
2011,07,19,10,49,18.10
2011,07,19,10,50,18.10
2011,07,19,10,51,18.00
2011,07,19,10,52,17.90
2011,07,19,10,53,17.90
2011,07,19,10,54,17.80
2011,07,19,10,55,17.70
2011,07,19,10,56,17.70
2011,07,19,10,57,17.70
2011,07,19,10,58,17.70
2011,07,19,10,59,17.70
2011,07,19,11,00,17.80
2011,07,19,11,01,17.80
2011,07,19,11,02,17.80
2011,07,19,11,03,17.90
2011,07,19,11,04,17.90
2011,07,19,11,05,17.90
2011,07,19,11,06,18.00
2011,07,19,11,07,18.10
2011,07,19,11,08,18.10
2011,07,19,11,09,18.20
2011,07,19,11,10,18.20
2011,07,19,11,11,18.30
2011,07,19,11,12,18.40
2011,07,19,11,13,18.60
2011,07,19,11,14,18.60
2011,07,19,11,15,18.60
2011,07,19,11,16,18.60
2011,07,19,11,17,18.60
2011,07,19,11,18,18.60
2011,07,19,11,19,18.70
2011,07,19,11,20,18.70
2011,07,19,11,21,18.70
2011,07,19,11,22,18.60
2011,07,19,11,23,18.70
2011,07,19,11,24,18.70
2011,07,19,11,25,18.60
2011,07,19,11,26,18.60
2011,07,19,11,27,18.60
2011,07,19,11,28,18.60
2011,07,19,11,29,18.50
2011,07,19,11,30,18.40
2011,07,19,11,35,18.30
2011,07,19,11,45,18.40
2011,07,19,11,48,18.20
2011,07,19,16,01,17.10
2011,07,19,16,04,17.10
2011,07,19,16,05,17.00
2011,07,19,16,06,16.90
2011,07,19,16,07,16.90
2011,07,19,16,08,16.90
2011,07,19,16,09,16.80
2011,07,19,16,10,16.80
2011,07,19,16,11,16.90
2011,07,19,16,12,16.90
2011,07,19,16,13,16.90
2011,07,19,16,14,16.90
2011,07,19,16,15,16.90
2011,07,19,16,16,16.90
2011,07,19,16,17,16.90
2011,07,19,16,18,16.90
2011,07,19,16,19,16.90
2011,07,19,16,20,16.90
2011,07,19,16,21,16.90
2011,07,19,16,22,16.90
2011,07,19,16,23,16.90
2011,07,19,16,24,16.90
2011,07,19,16,25,16.90
2011,07,19,16,26,16.90
2011,07,19,16,27,16.90
2011,07,19,16,28,16.80
2011,07,19,16,29,16.80
2011,07,19,16,30,16.80
2011,07,19,16,31,16.80
2011,07,19,16,32,16.80
2011,07,19,16,33,16.80
2011,07,19,16,34,16.80
2011,07,19,16,35,16.80
2011,07,19,16,36,16.80
2011,07,19,16,37,16.80
2011,07,19,16,38,16.80
2011,07,19,16,39,16.80
2011,07,19,16,40,16.70
2011,07,19,16,41,16.60
2011,07,19,16,42,16.60
2011,07,19,16,43,16.60
2011,07,19,16,44,16.50
2011,07,19,16,45,16.50
2011,07,19,16,46,16.50
2011,07,19,16,47,16.50
2011,07,19,16,48,16.50
2011,07,19,16,49,16.50
2011,07,19,16,50,16.60
2011,07,19,16,51,16.60
2011,07,19,16,52,16.60
2011,07,19,16,53,16.60
2011,07,19,16,54,16.50
2011,07,19,16,55,16.50
2011,07,19,16,56,16.50
2011,07,19,16,57,16.50
2011,07,19,16,58,16.50
2011,07,19,16,59,16.60
2011,07,19,17,00,16.60
2011,07,19,17,01,16.60
2011,07,19,17,02,16.60
2011,07,19,17,03,16.60
2011,07,19,17,04,16.60
2011,07,19,17,05,16.60
2011,07,19,17,06,16.60
2011,07,19,17,07,16.60
2011,07,19,17,08,16.60
2011,07,19,17,09,16.60
2011,07,19,17,10,16.60
2011,07,19,17,11,16.60
2011,07,19,17,12,16.60
2011,07,19,17,13,16.60
2011,07,19,17,14,16.70
2011,07,19,17,15,16.70
2011,07,19,17,16,16.70
2011,07,19,17,17,16.70
2011,07,19,17,18,16.70
2011,07,19,17,19,16.60
2011,07,19,17,20,16.60
2011,07,19,17,21,16.60
2011,07,19,17,22,16.60
2011,07,19,17,23,16.60
2011,07,19,17,24,16.50
2011,07,19,17,25,16.50
2011,07,19,17,26,16.50
2011,07,19,17,27,16.50
2011,07,19,17,28,16.50
2011,07,19,17,29,16.50
2011,07,19,17,30,16.50
2011,07,19,17,31,16.40
2011,07,19,17,32,16.50
2011,07,19,17,33,16.50
2011,07,19,17,34,16.40
2011,07,19,17,35,16.40
2011,07,19,17,36,16.40
2011,07,19,17,37,16.40
2011,07,19,17,38,16.50
2011,07,19,17,39,16.50
2011,07,19,17,40,16.50
2011,07,19,17,41,16.50
2011,07,19,17,42,16.50
2011,07,19,17,43,16.50
2011,07,19,17,44,16.50
2011,07,19,17,45,16.50
2011,07,19,17,46,16.60
2011,07,19,17,47,16.60
2011,07,19,17,48,16.60
2011,07,19,17,49,16.60
2011,07,19,17,50,16.60
2011,07,19,17,51,16.60
2011,07,19,17,52,16.70
2011,07,19,17,53,16.60
2011,07,19,17,54,16.60
2011,07,19,17,55,16.70
2011,07,19,17,56,16.70
2011,07,19,17,57,16.70
2011,07,19,17,58,16.60
2011,07,19,17,59,16.60
2011,07,19,18,00,16.60
2011,07,19,18,01,16.60
2011,07,19,18,02,16.60
2011,07,19,18,03,16.70
2011,07,19,18,04,16.70
2011,07,19,18,05,16.70
2011,07,19,18,07,16.70
2011,07,19,18,08,16.70
2011,07,19,18,09,16.60
2011,07,19,18,10,16.60
2011,07,19,18,11,16.50
2011,07,19,18,12,16.50
2011,07,19,18,13,16.60
2011,07,19,18,14,16.60
2011,07,19,18,15,16.60
2011,07,19,18,16,16.60
2011,07,19,18,17,16.70
2011,07,19,18,18,16.70
2011,07,19,18,19,16.80
2011,07,19,18,20,16.80
2011,07,19,18,21,16.80
2011,07,19,18,22,16.90
2011,07,19,18,23,16.90
2011,07,19,18,24,17.00
2011,07,19,18,25,17.10
2011,07,19,18,26,17.10
2011,07,19,18,27,17.20
2011,07,19,18,28,17.20
2011,07,19,18,29,17.20
2011,07,19,18,30,17.20
2011,07,19,18,31,17.20
2011,07,19,18,32,17.20
2011,07,19,18,33,17.20
2011,07,19,18,34,17.20
2011,07,19,18,35,17.20
2011,07,19,18,36,17.10
2011,07,19,18,37,17.10
2011,07,19,18,38,17.10
2011,07,19,18,39,17.00
2011,07,19,18,40,16.90
2011,07,19,18,41,16.90
2011,07,19,18,42,16.90
2011,07,19,18,43,16.90
2011,07,19,18,44,16.90
2011,07,19,18,45,16.90
2011,07,19,18,46,16.80
2011,07,19,18,47,16.80
2011,07,19,18,48,16.70
2011,07,19,18,49,16.70
2011,07,19,18,50,16.60
2011,07,19,18,51,16.60
2011,07,19,18,52,16.60
2011,07,19,18,53,16.60
2011,07,19,18,54,16.50
2011,07,19,18,55,16.40
2011,07,19,18,56,16.40
2011,07,19,18,57,16.40
2011,07,19,18,58,16.40
2011,07,19,18,59,16.40
2011,07,19,19,00,16.40
2011,07,19,19,01,16.30
2011,07,19,19,02,16.30
2011,07,19,19,03,16.30
2011,07,19,19,04,16.30
2011,07,19,19,05,16.30
2011,07,19,19,06,16.20
2011,07,19,19,07,16.30
2011,07,19,19,08,16.30
2011,07,19,19,09,16.30
2011,07,19,19,10,16.30
2011,07,19,19,11,16.30
2011,07,19,19,12,16.30
2011,07,19,19,13,16.30
2011,07,19,19,14,16.30
2011,07,19,19,15,16.30
2011,07,19,19,16,16.30
2011,07,19,19,17,16.20
2011,07,19,19,18,16.20
2011,07,19,19,19,16.20
2011,07,19,19,20,16.20
2011,07,19,19,21,16.20
2011,07,19,19,22,16.10
2011,07,19,19,23,16.10
2011,07,19,19,24,16.10
2011,07,19,19,25,16.10
2011,07,19,19,26,16.00
2011,07,19,19,27,16.10
2011,07,19,19,28,16.00
2011,07,19,19,29,16.00
2011,07,19,19,30,16.00
2011,07,19,19,31,16.00
2011,07,19,19,32,16.00
2011,07,19,19,33,16.00
2011,07,19,19,34,16.00
2011,07,19,19,35,16.00
2011,07,19,19,36,16.00
2011,07,19,19,37,16.00
2011,07,19,19,38,16.00
2011,07,19,19,39,16.00
2011,07,19,19,40,16.00
2011,07,19,19,41,16.00
2011,07,19,19,42,16.00
2011,07,19,19,43,15.90
2011,07,19,19,44,15.90
2011,07,19,19,45,15.90
2011,07,19,19,46,16.00
2011,07,19,19,47,16.00
2011,07,19,19,48,16.00
2011,07,19,19,49,16.00
2011,07,19,19,50,16.00
2011,07,19,19,51,16.00
2011,07,19,19,52,16.00
2011,07,19,19,53,16.00
2011,07,19,19,54,16.00
2011,07,19,19,55,16.00
2011,07,19,21,12,15.00
2011,07,19,21,13,15.00
2011,07,19,21,14,15.00
2011,07,19,21,15,15.00
2011,07,19,21,16,15.00
2011,07,19,21,17,15.00
2011,07,19,21,18,15.00
2011,07,19,21,19,15.00
2011,07,19,21,20,15.00
2011,07,19,21,21,15.00
2011,07,19,21,22,15.00
2011,07,19,21,23,15.00
2011,07,19,21,24,15.00
2011,07,19,21,25,15.00
2011,07,19,21,26,15.00
2011,07,19,21,27,15.00
2011,07,19,21,28,15.00
2011,07,19,21,29,15.00
2011,07,19,21,30,15.00
2011,07,19,21,31,15.00
2011,07,19,21,32,15.00
2011,07,19,21,33,15.00
2011,07,19,21,34,15.00
2011,07,19,21,35,15.00
2011,07,19,21,36,15.00
2011,07,19,21,37,15.00
2011,07,19,21,38,15.00
2011,07,19,21,39,15.00
2011,07,19,21,40,15.00
2011,07,19,21,41,15.00
2011,07,19,21,42,15.00
2011,07,19,21,43,15.00
2011,07,19,21,44,15.00
2011,07,19,21,45,15.00
2011,07,19,21,46,15.00
2011,07,19,21,47,15.00
2011,07,19,21,48,15.00
2011,07,19,21,49,15.00
2011,07,19,21,50,15.00
2011,07,19,21,51,15.00
2011,07,19,21,52,15.00
2011,07,19,21,53,15.00
2011,07,19,21,54,15.00
2011,07,19,21,55,15.00
2011,07,19,21,56,15.00
2011,07,19,21,57,15.00
2011,07,19,21,58,15.00
2011,07,19,21,59,15.00
2011,07,19,22,00,15.00
2011,07,19,22,01,15.00
2011,07,19,22,02,14.90
2011,07,19,22,03,15.00
2011,07,19,22,04,14.90
2011,07,19,22,05,14.90
2011,07,19,22,06,14.90
2011,07,19,22,07,14.90
2011,07,19,22,08,14.90
2011,07,19,22,09,15.00
2011,07,19,22,10,15.00
2011,07,19,22,11,15.00
2011,07,19,22,12,15.00
2011,07,19,22,13,15.00
2011,07,19,22,14,15.00
2011,07,19,22,15,15.00
2011,07,19,22,16,15.00
2011,07,19,22,17,15.00
2011,07,19,22,18,15.00
2011,07,19,22,19,15.00
2011,07,19,22,20,15.00
2011,07,19,22,21,15.00
2011,07,19,22,22,15.00
2011,07,19,22,23,15.00
2011,07,19,22,24,15.00
2011,07,19,22,25,15.00
2011,07,19,22,26,15.00
2011,07,19,22,27,14.90
2011,07,19,22,28,14.90
2011,07,19,22,29,14.90
2011,07,19,22,30,14.90
2011,07,19,22,31,14.90
2011,07,19,22,32,15.00
2011,07,19,22,33,15.00
2011,07,19,22,34,14.90
2011,07,19,22,35,14.90
2011,07,19,22,36,14.90
2011,07,19,22,37,14.90
2011,07,19,22,38,14.90
2011,07,19,22,39,14.90
2011,07,19,22,40,14.90
2011,07,19,22,41,14.90
2011,07,19,22,42,14.90
2011,07,19,22,43,14.80
2011,07,19,22,44,14.90
2011,07,19,22,45,14.90
2011,07,19,22,46,14.90
2011,07,19,22,47,14.90
2011,07,19,22,48,14.90
2011,07,19,22,49,14.90
2011,07,19,22,50,14.90
2011,07,19,22,51,14.90
2011,07,19,22,52,14.90
2011,07,19,22,53,14.90
2011,07,19,22,54,14.90
2011,07,19,22,55,14.90
2011,07,19,22,56,14.90
2011,07,19,22,57,14.90
2011,07,19,22,58,14.90
2011,07,19,22,59,14.90
2011,07,19,23,00,14.90
2011,07,19,23,01,14.90
2011,07,19,23,02,14.90
2011,07,19,23,03,14.90
2011,07,19,23,04,14.90
2011,07,19,23,05,14.90
2011,07,19,23,06,14.90
2011,07,19,23,07,14.90